Back to catalog

NOAA 16 DEB

AlivePO
NORAD 42351·DEBRIS·🇺🇸 United States

Launched Sep 21, 2000 from Vandenberg Space Force Base

Loading…

Next Passes (next 24 hours)

TLE

FreshSource: Space-Track

Epoch: Sep 12, 2026, 08:35 UTC

1 42351U 00055QT  26255.35830783  .00006599  00000-0  12269-2 0  9993
2 42351  98.7032  38.7674 0028407  33.6125 326.6871 14.65242029546229

Track NOAA 16 DEB in real time with AllMySat

Download on the App Store